Beaufort, NC

2:58 PM EDT on July 28, 2017 (GMT -0400)
Smith

Weather History for KMRH - June, 2013

Change the Weather History Date:

Sunday, June 2, 2013

  Actual Average Record
Temperature  
Mean Temperature 78 °F -  
Max Temperature 82 °F 82 °F 91 °F (2011)
Min Temperature 73 °F 65 °F 50 °F (1972)
Cooling Degree Days 12    
Growing Degree Days 28 (Base 50)    
Moisture  
Dew Point 71 °F    
Average Humidity 80    
Maximum Humidity 91    
Minimum Humidity 69    
Precipitation  
Precipitation 0.00 in - - ()
Sea Level Pressure  
Sea Level Pressure 30.05 in    
Wind  
Wind Speed 11 mph (SSW)    
Max Wind Speed 17 mph    
Max Gust Speed 22 mph    
Visibility 10 miles    
Events      
Averages and records for this station are not official NWS values.
T = Trace of Precipitation, MM = Missing Value Source: NWS Daily Summary

Daily Weather History Graph

Daily Weather History Graph

Search for Another Location

Airport or City:

Trip Planner

Search our weather history database for the weather conditions in past years. The results will help you decide how hot, cold, wet, or windy it might be!

Date:

Astronomy

Jun. 02, 2013 Rise Set
Actual Time 5:54 AM EDT 8:15 PM EDT
Civil Twilight 5:25 AM EDT 8:44 PM EDT
Nautical Twilight 4:49 AM EDT 9:20 PM EDT
Astronomical Twilight 4:10 AM EDT 9:59 PM EDT
Moon 2:07 AM EDT (6/2) 2:55 PM EDT (6/2)
Length of Visible Light 15h 19m
Length of Day
14h 21m
Waning Crescent, 31% of the Moon is Illuminated
Jun 2
Waning Crescent
Jun 8
New
Jun 16
First Quarter
Jun 23
Full
Jun 30
Last Quarter

Hourly Weather History & Observations

Time (EDT) Temp. Heat Index Dew Point Humidity Pressure Visibility Wind Dir Wind Speed Gust Speed Precip Events Conditions
12:58 AM 75.0 °F - 71.1 °F 87% 30.11 in 10.0 mi SW 9.2 mph - N/A   Clear
1:58 AM 75.0 °F - 71.1 °F 87% 30.09 in 10.0 mi SW 9.2 mph - N/A   Clear
2:58 AM 75.0 °F - 71.1 °F 87% 30.08 in 10.0 mi SW 9.2 mph - N/A   Clear
3:58 AM 73.9 °F - 71.1 °F 91% 30.06 in 10.0 mi SW 9.2 mph - N/A   Clear
4:58 AM 73.9 °F - 71.1 °F 91% 30.05 in 10.0 mi SSW 8.1 mph - N/A   Clear
5:58 AM 73.9 °F - 70.0 °F 87% 30.05 in 10.0 mi SSW 8.1 mph - N/A   Clear
6:58 AM 75.0 °F - 71.1 °F 87% 30.05 in 10.0 mi South 6.9 mph - N/A   Clear
7:58 AM 77.0 °F - 71.1 °F 82% 30.07 in 10.0 mi SSW 12.7 mph - N/A   Clear
8:58 AM 79.0 °F - 70.0 °F 74% 30.08 in 10.0 mi SW 10.4 mph - N/A   Clear
9:58 AM 79.0 °F - 71.1 °F 77% 30.07 in 10.0 mi SSW 12.7 mph - N/A   Clear
10:21 AM 78.8 °F - 71.6 °F 78% 30.07 in 10.0 mi SW 10.4 mph - N/A   Mostly Cloudy
10:43 AM 78.8 °F - 71.6 °F 78% 30.06 in 10.0 mi SW 11.5 mph - N/A   Scattered Clouds
10:58 AM 80.1 °F 83.8 °F 72.0 °F 76% 30.07 in 10.0 mi SSW 11.5 mph - N/A   Scattered Clouds
11:58 AM 81.0 °F 85.2 °F 72.0 °F 74% 30.08 in 10.0 mi SW 13.8 mph - N/A   Partly Cloudy
12:58 PM 82.0 °F 86.3 °F 71.1 °F 69% 30.08 in 10.0 mi SSW 15.0 mph - N/A   Partly Cloudy
1:58 PM 81.0 °F 84.9 °F 71.1 °F 72% 30.07 in 10.0 mi SSW 16.1 mph - N/A   Partly Cloudy
2:58 PM 81.0 °F 84.9 °F 71.1 °F 72% 30.05 in 10.0 mi South 15.0 mph - N/A   Clear
3:58 PM 81.0 °F 84.9 °F 71.1 °F 72% 30.04 in 10.0 mi SSW 16.1 mph - N/A   Clear
4:58 PM 81.0 °F 84.4 °F 70.0 °F 69% 30.02 in 10.0 mi SSW 17.3 mph 21.9 mph N/A   Clear
5:58 PM 80.1 °F 83.6 °F 71.1 °F 74% 30.00 in 10.0 mi South 11.5 mph 21.9 mph N/A   Clear
6:58 PM 78.1 °F - 71.1 °F 79% 29.99 in 10.0 mi South 11.5 mph - N/A   Clear
7:58 PM 75.9 °F - 70.0 °F 82% 30.01 in 10.0 mi South 10.4 mph - N/A   Clear
8:58 PM 75.9 °F - 71.1 °F 85% 30.02 in 10.0 mi South 10.4 mph - N/A   Clear
9:58 PM 75.9 °F - 72.0 °F 87% 30.01 in 10.0 mi South 8.1 mph - N/A   Clear
10:58 PM 75.9 °F - 72.0 °F 87% 30.00 in 10.0 mi South 10.4 mph - N/A   Clear
11:58 PM 75.9 °F - 72.0 °F 87% 30.01 in 10.0 mi SSW 10.4 mph - N/A   Clear